Weather History for Sigonella, Italy

Change the Weather History Date:

Tuesday, January 8, 2013

  Actual Average Record
Temperature  
Mean Temperature 50 °F -  
Max Temperature 65 °F 60 °F 68 °F (2011)
Min Temperature 35 °F 41 °F 30 °F (2002)
Degree Days  
Heating Degree Days 15    
Moisture  
Dew Point 39 °F    
Average Humidity 76    
Maximum Humidity 100    
Minimum Humidity 18    
Precipitation  
Precipitation 0.00 in 0.07 in - ()
Sea Level Pressure  
Sea Level Pressure 30.24 in    
Wind  
Wind Speed 5 mph ()    
Max Wind Speed 14 mph    
Max Gust Speed -    
Visibility 7.6 miles    
Events      
Averages and records for this station are not official NWS values.
T = Trace of Precipitation, MM = Missing Value Source: Averaged Metar Reports

Daily Weather History Graph

Daily Weather History Graph

Search for Another Location

Airport:

Trip Planner

Search our weather history database for the weather conditions in past years. The results will help you decide how hot, cold, wet, or windy it might be!

Date:

Astronomy

Jan. 08, 2013 Rise Set
Actual Time 7:15 AM CET 4:59 PM CET
Civil Twilight 6:46 AM CET 5:28 PM CET
Nautical Twilight 6:13 AM CET 6:00 PM CET
Astronomical Twilight 5:42 AM CET 6:32 PM CET
Moon 3:28 AM CET (1/8) 1:45 PM CET (1/8)
Length of Visible Light 10h 42m
Length of Day
9h 44m
Waning Crescent, 16% of the Moon is Illuminated
Jan 8
Waning Crescent
Jan 11
New
Jan 19
First Quarter
Jan 27
Full
Feb 3
Last Quarter

Hourly Weather History & Observations

Time (CET) Temp. Windchill Dew Point Humidity Pressure Visibility Wind Dir Wind Speed Gust Speed Precip Events Conditions
12:55 AM 37.4 °F 30.8 °F 37.4 °F 100% 30.18 in 6.2 mi WNW 9.2 mph - N/A   Scattered Clouds
1:00 AM 38 °F - 37 °F 94% 30.20 in 6 mi WNW 9.2 mph - -   Scattered Clouds
1:55 AM 37.4 °F 33.8 °F 37.4 °F 100% 30.18 in 6.2 mi WNW 4.6 mph - N/A   Scattered Clouds
2:55 AM 35.6 °F 32.8 °F 35.6 °F 100% 30.21 in 6.2 mi North 3.5 mph - N/A   Scattered Clouds
3:55 AM 39.2 °F 35.9 °F 39.2 °F 100% 30.18 in 6.2 mi WSW 4.6 mph - N/A   Partly Cloudy
4:00 AM 40 °F - 40 °F 100% 30.21 in 6 mi WSW 4.6 mph - -   Scattered Clouds
4:55 AM 39.2 °F - 39.2 °F 100% 30.18 in 6.2 mi WSW 2.3 mph - N/A   Partly Cloudy
5:55 AM 37.4 °F - 37.4 °F 100% 30.18 in 6.2 mi SSE 2.3 mph - N/A   Partly Cloudy
6:55 AM 39.2 °F 37.0 °F 39.2 °F 100% 30.21 in 6.2 mi WNW 3.5 mph - N/A   Scattered Clouds
7:55 AM 42.8 °F 41.1 °F 41.0 °F 93% 30.24 in 6.2 mi WNW 3.5 mph - N/A   Scattered Clouds
8:55 AM 51.8 °F - 44.6 °F 76% 30.27 in 6.2 mi West 2.3 mph - N/A   Partly Cloudy
9:55 AM 55.4 °F - 44.6 °F 67% 30.30 in 6.2 mi West 6.9 mph - N/A   Partly Cloudy
10:00 AM 56 °F - 44 °F 54% 30.30 in 10 mi West 6.9 mph - -   Scattered Clouds
10:55 AM 60.8 °F - 37.4 °F 42% 30.27 in 6.2 mi West 4.6 mph - N/A   Partly Cloudy
11:55 AM 62.6 °F - 35.6 °F 37% 30.27 in 6.2 mi West 4.6 mph - N/A   Partly Cloudy
12:55 PM 62.6 °F - 30.2 °F 30% 30.24 in 6.2 mi WNW 8.1 mph - N/A   Partly Cloudy
1:00 PM 63 °F - 31 °F 18% 30.25 in 16 mi WNW 8.1 mph - -   Scattered Clouds
1:55 PM 64.4 °F - 30.2 °F 28% 30.21 in 6.2 mi WNW 11.5 mph - N/A   Partly Cloudy
2:55 PM 59.0 °F - 37.4 °F 45% 30.24 in 6.2 mi East 13.8 mph - N/A   Partly Cloudy
3:55 PM 57.2 °F - 37.4 °F 48% 30.24 in 6.2 mi East 9.2 mph - N/A   Partly Cloudy
4:00 PM 58 °F - 38 °F 35% 30.26 in 16 mi East 9.2 mph - -   Scattered Clouds
4:55 PM 53.6 °F - 41.0 °F 62% 30.24 in - ESE 3.5 mph - N/A   Clear
5:55 PM 48.2 °F - 42.8 °F 82% 30.27 in - Calm Calm - N/A   Clear
6:55 PM 50.0 °F - 44.6 °F 82% 30.27 in - NNW 3.5 mph - N/A   Clear
7:00 PM 49 °F - 44 °F 77% 30.28 in 16 mi NNW 3.5 mph - -  
7:55 PM 44.6 °F 40.2 °F 42.8 °F 93% 30.27 in - West 8.1 mph - N/A   Clear
8:55 PM 41.0 °F - 41.0 °F 100% 30.24 in - West 2.3 mph - N/A   Clear
9:55 PM 41.0 °F 35.8 °F 41.0 °F 100% 30.27 in - WNW 8.1 mph - N/A   Clear
10:00 PM 41 °F - 41 °F 100% 30.28 in 6 mi WNW 8.1 mph - -  
10:55 PM 41.0 °F 37.1 °F 41.0 °F 100% 30.24 in - West 5.8 mph - N/A   Clear
11:55 PM 41.0 °F 36.4 °F 41.0 °F 100% 30.24 in - NW 6.9 mph - N/A   Clear